Regional Weather Roundup
Issued by NWS

Home | Current Version | Previous Version | Text Only | Print | Product List | Glossary Off
Versions: 1 2 3 4 5 6 7 8 9 10 11 12 13 14 15 16 17 18 19 20 21 22 23 24 25 26 27 28 29 30 31 32 33 34 35 36 37 38 39 40 41 42 43 44 45 46 47 48 49 50

000
ASUS43 KDTX 290001
RWRMI
MICHIGAN HOURLY REGIONAL WEATHER ROUNDUP
NATIONAL WEATHER SERVICE DETROIT/PONTIAC MI
800 PM EDT THU AUG 28 2014

NOTE: "FAIR" INDICATES FEW OR NO CLOUDS BELOW 12,000 FEET WITH NO
SIGNIFICANT WEATHER AND/OR OBSTRUCTION TO VISIBILITY.

MIZ047>049-052>055-059>063-066>070-074>076-081>083-290100-
SOUTHEAST LOWER MICHIGAN

CITY           SKY/WX    TMP DP  RH WIND       PRES   REMARKS
ADRIAN         PTCLDY    71  56  58 SE7       30.11R
6HR MIN TEMP:  71; 6HR MAX TEMP:  76;

ALMA           PTCLDY    62  56  79 CALM      30.13R
ANN ARBOR      MOCLDY    67  57  70 SE5       30.11R
BAD AXE        PTCLDY    60  52  74 CALM      30.14S
6HR MIN TEMP:  60; 6HR MAX TEMP:  71;

CARO           PTCLDY    61  55  80 N3        30.12S
DETROIT CITY   CLEAR     70  52  52 SE6       30.12R
6HR MIN TEMP:  69; 6HR MAX TEMP:  75;

DETROIT        MOCLDY    67  52  58 SE5       30.12R
6HR MIN TEMP:  67; 6HR MAX TEMP:  76;

FLINT          PTCLDY    68  52  56 E3        30.12R
6HR MIN TEMP:  68; 6HR MAX TEMP:  76;

GROSSE ILE     PTCLDY    68  54  60 SE3       30.11R
HILLSDALE      PTCLDY    72  56  57 E3        30.11S
6HR MIN TEMP:  72; 6HR MAX TEMP:  77;

HOWELL         PTCLDY    64  53  68 CALM      30.12R
6HR MIN TEMP:  64; 6HR MAX TEMP:  71;


CITY           SKY/WX    TMP DP  RH WIND       PRES   REMARKS
JACKSON        MOCLDY    68  53  58 NE3       30.11S
6HR MIN TEMP:  68; 6HR MAX TEMP:  75;

LAMBERTVILLE   PTCLDY    68  55  64 E3        30.12S
LANSING        MOCLDY    67  53  61 N3        30.12S
6HR MIN TEMP:  67; 6HR MAX TEMP:  74;

LAPEER         FAIR      65  54  67 CALM      30.12S
MASON          MOCLDY    66  56  71 CALM      30.12R
MONROE         PTCLDY    66  55  68 E3        30.10S
MT. CLEMENS    MOCLDY    66  52  59 NE8       30.11R
6HR MIN TEMP:  66; 6HR MAX TEMP:  71;

PONTIAC        MOCLDY    69  48  47 CALM      30.11S
6HR MIN TEMP:  68; 6HR MAX TEMP:  73;

PORT HOPE        N/A     63  52  67 E7        30.13S
6HR MIN TEMP:  63; 6HR MAX TEMP:  67;

PORT HURON     PTCLDY    61  50  67 CALM      30.14R
TRI CITIES     PTCLDY    65  54  67 NE5       30.13S
6HR MIN TEMP:  65; 6HR MAX TEMP:  72;

TROY           PTCLDY    71  48  44 E6        30.13S
SAGINAW HB     PTCLDY    63  55  77 NE5       30.12S
$$
MIZ043>046-050>051-056>058-064>065-071>073-077>080-290100-
SOUTHWEST LOWER MICHIGAN

CITY           SKY/WX    TMP DP  RH WIND       PRES   REMARKS
BATTLE CREEK   MOCLDY    71  55  56 NE8       30.10S
6HR MIN TEMP:  71; 6HR MAX TEMP:  76;

BENTON HARBOR  PTCLDY    72  61  68 E6        30.06S
6HR MIN TEMP:  72; 6HR MAX TEMP:  80;

BIG RAPIDS     MOCLDY    65  60  81 CALM      30.11S
6HR MIN TEMP:  65; 6HR MAX TEMP:  72;

COLDWATER      PTCLDY    73  58  60 NE6       30.09S
6HR MIN TEMP:  73; 6HR MAX TEMP:  79;

FREMONT        FAIR      68  51  54 CALM      30.09F
HOLLAND        PTCLDY    71  52  50 E6        30.10S
6HR MIN TEMP:  71; 6HR MAX TEMP:  77;

GRAND RAPIDS   MOCLDY    68  57  68 E6        30.11S
6HR MIN TEMP:  68; 6HR MAX TEMP:  74;

IONIA          FAIR      66  57  71 CALM      30.11R
KALAMAZOO      PTCLDY    72  57  59 NE6       30.09S
6HR MIN TEMP:  72; 6HR MAX TEMP:  78;

LUDINGTON      CLOUDY    63  56  79 CALM      30.10S
6HR MIN TEMP:  63; 6HR MAX TEMP:  74;

MARSHALL       MOCLDY    68  55  64 CALM      30.10S
MOUNT PLEASANT PTCLDY    66  51  59 CALM      30.11S
6HR MIN TEMP:  66; 6HR MAX TEMP:  73;

MUSKEGON       MOCLDY    71  53  52 E5        30.09F
6HR MIN TEMP:  71; 6HR MAX TEMP:  76;

SOUTH HAVEN    PTCLDY    72  61  69 E3        30.07S
$$
MIZ016>042-290100-
NORTHERN LOWER MICHIGAN

CITY           SKY/WX    TMP DP  RH WIND       PRES   REMARKS
ALPENA         CLEAR     58  48  69 SE6       30.13S
6HR MIN TEMP:  58; 6HR MAX TEMP:  71;

BEAVER ISLAND  MOCLDY    61  54  77 CALM      30.12S
BELLAIRE       MOCLDY    62  54  74 CALM      30.12R
6HR MIN TEMP:  61; 6HR MAX TEMP:  70;

CADILLAC       PTCLDY    64  52  65 CALM      30.11S
CHARLEVOIX     MOCLDY    64  49  59 CALM      30.14S
6HR MIN TEMP:  64; 6HR MAX TEMP:  67;

FRANKFORT      CLOUDY    65  52  62 CALM      30.10S
GAYLORD        PTCLDY    63  47  55 N3        30.13S
6HR MIN TEMP:  63; 6HR MAX TEMP:  68;

GRAYLING       PTCLDY    62  54  74 CALM      30.13S
6HR MIN TEMP:  62; 6HR MAX TEMP:  74;

HARBOR SPRINGS PTCLDY    62  49  61 CALM      30.12S
HOUGHTON LAKE  PTCLDY    64  52  64 CALM      30.13R
6HR MIN TEMP:  64; 6HR MAX TEMP:  71;

MANISTEE       CLOUDY    64  54  68 N5        30.11S
OSCODA         PTCLDY    62  50  64 E5        30.13S
PELLSTON       PTCLDY    60  50  69 CALM      30.12S
6HR MIN TEMP:  60; 6HR MAX TEMP:  70;

TRAVERSE CITY  MOCLDY    66  51  58 NE6       30.10S
6HR MIN TEMP:  66; 6HR MAX TEMP:  71;

$$
MIZ007>008-015-290100-
EASTERN UPPER MICHIGAN

CITY           SKY/WX    TMP DP  RH WIND       PRES   REMARKS
KINROSS        CLEAR     63  48  59 S3        30.12R
6HR MIN TEMP:  63; 6HR MAX TEMP:  66;

MACKINAC ISLAN CLEAR     59  50  71 CALM      30.11F
NEWBERRY       CLOUDY    60  48  65 CALM      30.11S
S. S. MARIE    CLEAR     64  47  53 CALM      30.11S
6HR MIN TEMP:  64; 6HR MAX TEMP:  69;

$$
MIZ004>006-011>014-085-290100-
CENTRAL UPPER MICHIGAN

CITY           SKY/WX    TMP DP  RH WIND       PRES   REMARKS
MANISTIQUE     MOCLDY    60  53  77 SW5       30.11S
ESCANABA       MOCLDY    63  52  67 SE9       30.10S
6HR MIN TEMP:  63; 6HR MAX TEMP:  66;

MENOMINEE      CLOUDY    64  54  68 S9        30.08S
6HR MIN TEMP:  64; 6HR MAX TEMP:  66;

SAWYER-GWINN   PTCLDY    63  54  72 S12       30.09F
$$
MIZ001>003-009>011-084-290100-
WESTERN UPPER MICHIGAN

CITY           SKY/WX    TMP DP  RH WIND       PRES   REMARKS
IRON MOUNTAIN  CLOUDY    65  57  75 S8        30.07S
6HR MIN TEMP:  65; 6HR MAX TEMP:  73;

HOUGHTON       PTCLDY    60  50  69 E9        30.05F
6HR MIN TEMP:  60; 6HR MAX TEMP:  69;

COPPER HARBOR    N/A     61  49  64 VRB6      30.05F
6HR MIN TEMP:  61; 6HR MAX TEMP:  69;

$$

ABBREVIATIONS USED IN REMARKS
   TC - TEMPERATURE IN CELSIUS
  WCI - WIND CHILL INDEX
   HX - HEAT INDEX
  VSB - VISIBILITY




USA.gov is the U.S. government's official web portal to all federal, state and local government web resources and services.